User: anonymous   Login
Location: L�Ave Maria
(50.7161°N, 1.5911°E)
Time: 23:58:27
(UTC+00:00)
Language:

IRIDIUM 106 - Orbit

View from above orbital plane
View from above orbital plane
View from above satellite
View from above satellite

Ground track
Ground track

The orbit data is extracted from the following two-line orbital elements,

1 41917U 17003A   20273.45863776 +.00000086 +00000-0 +23565-4 0  9992
2 41917 086.3966 240.4651 0001856 081.8146 278.3260 14.34219706194113
Epoch (UTC): 29 September 2020 11:00:26
Eccentricity: 0.0001856
inclination: 86.3966°
perigee height: 776 km
apogee height: 779 km
right ascension of ascending node: 240.4651°
argument of perigee: 81.8146°
revolutions per day: 14.34219706
mean anomaly at epoch: 278.3260°
orbit number at epoch: 19411

The dashed part of the orbit path shows where the satellite is in the earth's shadow,  

DLR